When you browse on this site, cookies collect data to enhance your experience and personalize the content and advertising you see.
Visit our Privacy Policy to learn more. By continuing to use the site, you agree to this use of cookies and data.
  • în România
  • Lista ţărilor
  • Pe 7 zile
  • Temperatura apei
  • Meteo pe hartă
  • Widget-uri
  • user-avatar
    Intrare

    Meteo pe oră la Alba Iulia

    Astăzi, 27 Mai, Miercuri

    Timp Temperatura Precipitaţii Vânt Presiune Umiditate
    00:00 +9°C° 0 mm 1 m/s 743 mmHg 87%
    01:00 +9°C° 0 mm 1 m/s 743 mmHg 87%
    02:00 +8°C° 0 mm 1 m/s 743 mmHg 87%
    03:00 +9°C° 0 mm 1 m/s 743 mmHg 87%
    04:00 +9°C° 0 mm 1 m/s 743 mmHg 87%
    05:00 +8°C° 0 mm 0 m/s 744 mmHg 87%
    06:00 +9°C° 0 mm 0 m/s 744 mmHg 86%
    07:00 +10°C° 0 mm 0 m/s 744 mmHg 85%
    08:00 +11°C° 0 mm 0 m/s 744 mmHg 83%
    09:00 +13°C° 0.1 mm 1 m/s 744 mmHg 79%
    10:00 +14°C° 0.1 mm 1 m/s 744 mmHg 75%
    11:00 +16°C° 0.1 mm 2 m/s 744 mmHg 71%
    12:00 +16°C° 0.7 mm 2 m/s 744 mmHg 73%
    13:00 +16°C° 0.7 mm 2 m/s 743 mmHg 75%
    14:00 +16°C° 0.7 mm 2 m/s 743 mmHg 77%
    15:00 +16°C° 0.7 mm 2 m/s 743 mmHg 77%
    16:00 +16°C° 0.7 mm 2 m/s 742 mmHg 78%
    17:00 +16°C° 0.7 mm 2 m/s 742 mmHg 78%
    18:00 +15°C° 0.4 mm 2 m/s 742 mmHg 81%
    19:00 +14°C° 0.4 mm 1 m/s 742 mmHg 85%
    20:00 +12°C° 0.4 mm 1 m/s 742 mmHg 88%
    21:00 +12°C° 0.2 mm 1 m/s 742 mmHg 89%
    22:00 +11°C° 0.2 mm 1 m/s 742 mmHg 89%
    23:00 +11°C° 0.2 mm 1 m/s 742 mmHg 90%

    Mâine, 28 Mai, Joi

    Timp Temperatura Precipitaţii Vânt Presiune Umiditate
    00:00 +10°C° 0.1 mm 1 m/s 742 mmHg 90%
    01:00 +10°C° 0.1 mm 1 m/s 742 mmHg 90%
    02:00 +10°C° 0.1 mm 1 m/s 742 mmHg 90%
    03:00 +10°C° 0 mm 1 m/s 742 mmHg 90%
    04:00 +10°C° 0 mm 1 m/s 741 mmHg 91%
    05:00 +10°C° 0 mm 1 m/s 741 mmHg 91%
    06:00 +11°C° 0 mm 1 m/s 741 mmHg 88%
    07:00 +12°C° 0 mm 1 m/s 741 mmHg 86%
    08:00 +14°C° 0 mm 1 m/s 740 mmHg 83%
    09:00 +15°C° 0.6 mm 1 m/s 740 mmHg 81%
    10:00 +16°C° 0.6 mm 1 m/s 740 mmHg 78%
    11:00 +16°C° 0.6 mm 2 m/s 740 mmHg 75%
    12:00 +17°C° 1 mm 2 m/s 739 mmHg 75%
    13:00 +17°C° 1 mm 2 m/s 739 mmHg 74%
    14:00 +18°C° 1 mm 2 m/s 738 mmHg 73%
    15:00 +18°C° 1.2 mm 2 m/s 738 mmHg 75%
    16:00 +17°C° 1.2 mm 2 m/s 738 mmHg 77%
    17:00 +17°C° 1.2 mm 2 m/s 738 mmHg 78%
    18:00 +16°C° 0.6 mm 2 m/s 737 mmHg 81%
    19:00 +14°C° 0.6 mm 2 m/s 737 mmHg 84%
    20:00 +13°C° 0.6 mm 1 m/s 737 mmHg 87%
    21:00 +12°C° 0 mm 1 m/s 737 mmHg 87%
    22:00 +12°C° 0 mm 2 m/s 738 mmHg 88%
    23:00 +10°C° 0 mm 2 m/s 738 mmHg 89%

    Poimâine, 29 Mai, Vineri

    Timp Temperatura Precipitaţii Vânt Presiune Umiditate
    00:00 +10°C° 0 mm 2 m/s 738 mmHg 90%
    01:00 +9°C° 0 mm 2 m/s 738 mmHg 91%
    02:00 +9°C° 0 mm 2 m/s 737 mmHg 91%
    03:00 +10°C° 0 mm 1 m/s 737 mmHg 92%
    04:00 +9°C° 0 mm 1 m/s 738 mmHg 92%
    05:00 +9°C° 0 mm 1 m/s 738 mmHg 92%
    06:00 +11°C° 0 mm 1 m/s 738 mmHg 89%
    07:00 +13°C° 0 mm 1 m/s 738 mmHg 86%
    08:00 +15°C° 0 mm 2 m/s 738 mmHg 83%
    09:00 +16°C° 0.5 mm 2 m/s 738 mmHg 80%
    10:00 +17°C° 0.5 mm 2 m/s 738 mmHg 77%
    11:00 +18°C° 0.5 mm 2 m/s 738 mmHg 75%
    12:00 +18°C° 1.1 mm 2 m/s 738 mmHg 74%
    13:00 +19°C° 1.1 mm 2 m/s 737 mmHg 73%
    14:00 +19°C° 1.1 mm 2 m/s 737 mmHg 73%
    15:00 +18°C° 1.3 mm 2 m/s 737 mmHg 75%
    16:00 +18°C° 1.3 mm 2 m/s 737 mmHg 78%
    17:00 +19°C° 1.3 mm 1 m/s 737 mmHg 80%
    18:00 +16°C° 0.7 mm 1 m/s 737 mmHg 83%
    19:00 +15°C° 0.7 mm 1 m/s 737 mmHg 85%
    20:00 +14°C° 0.7 mm 1 m/s 737 mmHg 88%
    21:00 +13°C° 0.1 mm 1 m/s 737 mmHg 89%
    22:00 +12°C° 0.1 mm 1 m/s 737 mmHg 89%
    23:00 +11°C° 0.1 mm 1 m/s 737 mmHg 90%

    30 Mai, Sâmbătă

    Timp Temperatura Precipitaţii Vânt Presiune Umiditate
    00:00 +11°C° 0 mm 1 m/s 737 mmHg 90%
    01:00 +11°C° 0 mm 1 m/s 737 mmHg 91%
    02:00 +10°C° 0 mm 1 m/s 737 mmHg 91%
    03:00 +10°C° 0 mm 1 m/s 737 mmHg 91%
    04:00 +10°C° 0 mm 1 m/s 737 mmHg 91%
    05:00 +9°C° 0 mm 1 m/s 737 mmHg 92%
    06:00 +11°C° 0 mm 1 m/s 737 mmHg 89%
    07:00 +13°C° 0 mm 1 m/s 737 mmHg 86%
    08:00 +15°C° 0 mm 1 m/s 737 mmHg 83%
    09:00 +16°C° 0.2 mm 1 m/s 737 mmHg 78%
    10:00 +18°C° 0.2 mm 1 m/s 738 mmHg 74%
    11:00 +19°C° 0.2 mm 1 m/s 738 mmHg 69%
    12:00 +19°C° 0.8 mm 1 m/s 737 mmHg 69%
    13:00 +20°C° 0.8 mm 1 m/s 737 mmHg 68%
    14:00 +20°C° 0.8 mm 1 m/s 737 mmHg 68%
    15:00 +20°C° 0.8 mm 1 m/s 736 mmHg 69%
    16:00 +19°C° 0.8 mm 2 m/s 736 mmHg 71%
    17:00 +18°C° 0.8 mm 2 m/s 736 mmHg 73%
    18:00 +18°C° 0.3 mm 1 m/s 736 mmHg 78%
    19:00 +15°C° 0.3 mm 1 m/s 736 mmHg 82%
    20:00 +13°C° 0.3 mm 1 m/s 736 mmHg 87%
    21:00 +13°C° 0 mm 1 m/s 737 mmHg 88%
    22:00 +12°C° 0 mm 1 m/s 737 mmHg 88%
    23:00 +11°C° 0 mm 0 m/s 737 mmHg 88%

    31 Mai, Duminică

    Timp Temperatura Precipitaţii Vânt Presiune Umiditate
    00:00 +10°C° 0 mm 0 m/s 737 mmHg 89%
    01:00 +11°C° 0 mm 1 m/s 737 mmHg 90%
    02:00 +11°C° 0 mm 1 m/s 737 mmHg 91%
    03:00 +10°C° 0 mm 1 m/s 737 mmHg 91%
    04:00 +10°C° 0 mm 1 m/s 737 mmHg 92%
    05:00 +10°C° 0 mm 1 m/s 737 mmHg 93%
    06:00 +11°C° 0 mm 1 m/s 737 mmHg 89%
    07:00 +13°C° 0 mm 2 m/s 737 mmHg 86%
    08:00 +15°C° 0 mm 2 m/s 737 mmHg 82%
    09:00 +16°C° 0.1 mm 3 m/s 737 mmHg 75%
    10:00 +17°C° 0.1 mm 3 m/s 737 mmHg 68%
    11:00 +19°C° 0.1 mm 4 m/s 737 mmHg 61%
    12:00 +19°C° 0.1 mm 4 m/s 737 mmHg 58%
    13:00 +19°C° 0.1 mm 5 m/s 736 mmHg 56%
    14:00 +20°C° 0.1 mm 5 m/s 736 mmHg 53%
    15:00 +19°C° 0 mm 5 m/s 736 mmHg 55%
    16:00 +19°C° 0 mm 4 m/s 736 mmHg 57%
    17:00 +19°C° 0 mm 4 m/s 736 mmHg 58%
    18:00 +17°C° 0 mm 3 m/s 736 mmHg 66%
    19:00 +15°C° 0 mm 2 m/s 736 mmHg 73%
    20:00 +13°C° 0 mm 1 m/s 736 mmHg 81%
    21:00 +13°C° 0 mm 1 m/s 736 mmHg 81%
    22:00 +12°C° 0 mm 1 m/s 736 mmHg 82%
    23:00 +11°C° 0 mm 1 m/s 737 mmHg 83%

    1 Iunie, Luni

    Timp Temperatura Precipitaţii Vânt Presiune Umiditate
    00:00 +11°C° 0 mm 1 m/s 737 mmHg 84%
    01:00 +11°C° 0 mm 1 m/s 737 mmHg 85%
    02:00 +10°C° 0 mm 1 m/s 737 mmHg 87%
    03:00 +10°C° 0 mm 1 m/s 737 mmHg 88%
    04:00 +10°C° 0 mm 1 m/s 737 mmHg 88%
    05:00 +8°C° 0 mm 0 m/s 737 mmHg 89%
    06:00 +11°C° 0 mm 0 m/s 737 mmHg 84%
    07:00 +14°C° 0 mm 1 m/s 737 mmHg 78%
    08:00 +16°C° 0 mm 1 m/s 738 mmHg 72%
    09:00 +18°C° 0 mm 1 m/s 738 mmHg 69%
    10:00 +18°C° 0 mm 2 m/s 738 mmHg 65%
    11:00 +19°C° 0 mm 2 m/s 738 mmHg 62%
    12:00 +20°C° 0 mm 2 m/s 738 mmHg 60%
    13:00 +21°C° 0 mm 2 m/s 737 mmHg 59%
    14:00 +22°C° 0 mm 1 m/s 737 mmHg 57%
    15:00 +22°C° 0.2 mm 1 m/s 737 mmHg 59%
    16:00 +22°C° 0.2 mm 1 m/s 737 mmHg 61%
    17:00 +22°C° 0.2 mm 1 m/s 737 mmHg 64%
    18:00 +20°C° 0.4 mm 1 m/s 737 mmHg 71%
    19:00 +19°C° 0.4 mm 1 m/s 737 mmHg 78%
    20:00 +16°C° 0.4 mm 1 m/s 737 mmHg 84%
    21:00 +15°C° 0.4 mm 1 m/s 737 mmHg 86%
    22:00 +14°C° 0.4 mm 1 m/s 737 mmHg 88%
    23:00 +13°C° 0.4 mm 1 m/s 738 mmHg 89%
    Arată mai mult